Main page
METAR-TAF:

METAR-TAF

Airports :

Base Aérea de Santos

Santos, São Paulo, Brazil

latitude: 23-56S, longitude: 046-18W, elevation: 3 m

Current weather observation

The report was made 10 hours and 35 minutes ago, at 21:00 UTC
Wind 3 kt from the Southwest
Temperature 24°C
Humidity 78%
Pressure 1012 hPa
Visibility 10 km or more
Scattered clouds at a height of 2500 ft

METAR: SBST 182100Z 22003KT 9999 SCT025 24/20 Q1012

Time: 04:35 (07:35 UTC)


TAF: missing

Weather observations and forecasts of more than 4000 airports (METAR and TAF reports).

The available stations are represented by yellow and red dots on the map.

Hover mouse over dot to see the name of the station.

Then click to see weather observations and forecasts.

To change the map : click on the green buttons with a black cross to zoom in, on the green button with a dash to zoom out, or on the green arrows for adjacent maps.


METAR-TAF: